Weather History for Visalia, CA

Change the Weather History Date:

Sunday, April 27, 2014

  Actual Average Record
Temperature  
Mean Temperature 58 °F -  
Max Temperature 71 °F 76 °F 96 °F (2004)
Min Temperature 44 °F 50 °F 36 °F (1955)
Degree Days  
Heating Degree Days 8    
Growing Degree Days 8 (Base 50)    
Moisture  
Dew Point 40 °F    
Average Humidity 54    
Maximum Humidity 76    
Minimum Humidity 31    
Precipitation  
Precipitation 0.00 in - - ()
Sea Level Pressure  
Sea Level Pressure 30.05 in    
Wind  
Wind Speed 7 mph (NW)    
Max Wind Speed 13 mph    
Max Gust Speed -    
Visibility 10 miles    
Events      
Averages and records for this station are not official NWS values.
T = Trace of Precipitation, MM = Missing Value Source: NWS Daily Summary

Daily Weather History Graph

Daily Weather History Graph

Search for Another Location

Airport:

Trip Planner

Search our weather history database for the weather conditions in past years. The results will help you decide how hot, cold, wet, or windy it might be!

Date:

Astronomy

Apr. 27, 2014 Rise Set
Actual Time 6:08 AM PDT 7:42 PM PDT
Civil Twilight 5:41 AM PDT 8:09 PM PDT
Nautical Twilight 5:08 AM PDT 8:42 PM PDT
Astronomical Twilight 4:34 AM PDT 9:17 PM PDT
Moon 5:09 AM PDT (4/27) 6:23 PM PDT (4/27)
Length of Visible Light 14h 27m
Length of Day
13h 33m
Waning Crescent, 3% of the Moon is Illuminated
Apr 27
Waning Crescent
Apr 28
New
May 6
First Quarter
May 14
Full
May 21
Last Quarter

Hourly Weather History & Observations

Time (PDT) Temp. Windchill Dew Point Humidity Pressure Visibility Wind Dir Wind Speed Gust Speed Precip Events Conditions
12:15 AM 51.8 °F - 39.2 °F 62% 30.03 in 10.0 mi NW 9.2 mph - N/A   Clear
12:35 AM 51.8 °F - 39.2 °F 62% 30.05 in 10.0 mi NW 10.4 mph - N/A   Clear
12:55 AM 51.8 °F - 39.2 °F 62% 30.05 in 10.0 mi NW 8.1 mph - N/A   Clear
1:15 AM 51.8 °F - 39.2 °F 62% 30.05 in 10.0 mi NW 6.9 mph - N/A   Clear
1:35 AM 51.8 °F - 39.2 °F 62% 30.04 in 10.0 mi NW 9.2 mph - N/A   Clear
1:55 AM 51.8 °F - 39.2 °F 62% 30.04 in 10.0 mi NW 8.1 mph - N/A   Clear
2:15 AM 51.8 °F - 39.2 °F 62% 30.04 in 10.0 mi NW 8.1 mph - N/A   Clear
2:35 AM 50.0 °F - 39.2 °F 66% 30.03 in 10.0 mi NW 6.9 mph - N/A   Clear
2:55 AM 48.2 °F - 39.2 °F 71% 30.04 in 10.0 mi NW 8.1 mph - N/A   Clear
3:15 AM 48.2 °F - 39.2 °F 71% 30.04 in 10.0 mi NW 8.1 mph - N/A   Clear
3:35 AM 48.2 °F - 39.2 °F 71% 30.03 in 10.0 mi NW 8.1 mph - N/A   Clear
3:55 AM 48.2 °F - 39.2 °F 71% 30.03 in 10.0 mi NW 6.9 mph - N/A   Clear
4:15 AM 48.2 °F - 39.2 °F 71% 30.03 in 10.0 mi NW 6.9 mph - N/A   Clear
4:35 AM 48.2 °F - 37.4 °F 66% 30.04 in 10.0 mi NW 8.1 mph - N/A   Clear
4:55 AM 48.2 °F - 39.2 °F 71% 30.04 in 10.0 mi NW 9.2 mph - N/A   Clear
5:15 AM 48.2 °F - 37.4 °F 66% 30.05 in 10.0 mi NW 8.1 mph - N/A   Clear
5:35 AM 46.4 °F 42.9 °F 37.4 °F 71% 30.05 in 4.0 mi NW 6.9 mph - N/A   Clear
5:55 AM 46.4 °F 42.9 °F 37.4 °F 71% 30.06 in 10.0 mi NW 6.9 mph - N/A   Clear
6:15 AM 44.6 °F 41.4 °F 37.4 °F 76% 30.06 in 10.0 mi NW 5.8 mph - N/A   Clear
6:35 AM 44.6 °F 42.2 °F 37.4 °F 76% 30.06 in 10.0 mi North 4.6 mph - N/A   Clear
6:55 AM 46.4 °F 44.3 °F 37.4 °F 71% 30.07 in 10.0 mi NW 4.6 mph - N/A   Clear
7:15 AM 46.4 °F 43.5 °F 39.2 °F 76% 30.08 in 10.0 mi NNW 5.8 mph - N/A   Clear
7:35 AM 48.2 °F - 39.2 °F 71% 30.09 in 10.0 mi NNW 6.9 mph - N/A   Clear
7:55 AM 48.2 °F - 39.2 °F 71% 30.10 in 10.0 mi North 3.5 mph - N/A   Clear
8:15 AM 50.0 °F - 39.2 °F 66% 30.10 in 10.0 mi NW 4.6 mph - N/A   Clear
8:35 AM 51.8 °F - 41.0 °F 67% 30.10 in 10.0 mi North 5.8 mph - N/A   Clear
8:55 AM 51.8 °F - 42.8 °F 71% 30.09 in 10.0 mi WNW 3.5 mph - N/A   Clear
9:15 AM 53.6 °F - 42.8 °F 67% 30.09 in 10.0 mi NW 4.6 mph - N/A   Clear
9:35 AM 55.4 °F - 42.8 °F 63% 30.09 in 10.0 mi North 4.6 mph - N/A   Clear
9:55 AM 57.2 °F - 42.8 °F 59% 30.08 in 10.0 mi Calm Calm - N/A   Clear
10:15 AM 57.2 °F - 42.8 °F 59% 30.09 in 10.0 mi West 5.8 mph - N/A   Clear
10:35 AM 60.8 °F - 42.8 °F 52% 30.10 in 10.0 mi WNW 4.6 mph - N/A   Clear
10:55 AM 60.8 °F - 42.8 °F 52% 30.10 in 10.0 mi WNW 3.5 mph - N/A   Clear
11:15 AM 60.8 °F - 42.8 °F 52% 30.10 in 10.0 mi WNW 9.2 mph - N/A   Clear
11:35 AM 62.6 °F - 41.0 °F 45% 30.11 in 10.0 mi WNW 8.1 mph - N/A   Clear
11:55 AM 62.6 °F - 39.2 °F 42% 30.10 in 10.0 mi West 5.8 mph - N/A   Clear
12:15 PM 62.6 °F - 39.2 °F 42% 30.09 in 10.0 mi SW 3.5 mph - N/A   Clear
12:35 PM 64.4 °F - 39.2 °F 40% 30.09 in 10.0 mi NW 5.8 mph - N/A   Clear
1:15 PM 66.2 °F - 41.0 °F 40% 30.08 in 10.0 mi NNE 3.5 mph - N/A   Clear
1:35 PM 66.2 °F - 41.0 °F 40% 30.08 in 10.0 mi WSW 6.9 mph - N/A   Clear
1:55 PM 66.2 °F - 41.0 °F 40% 30.08 in 10.0 mi West 6.9 mph - N/A   Clear
2:15 PM 66.2 °F - 39.2 °F 37% 30.07 in 10.0 mi West 6.9 mph - N/A   Clear
2:35 PM 66.2 °F - 39.2 °F 37% 30.06 in 10.0 mi WNW 6.9 mph - N/A   Clear
2:55 PM 68.0 °F - 37.4 °F 33% 30.06 in 10.0 mi NNW 5.8 mph - N/A   Clear
3:15 PM 69.8 °F - 39.2 °F 33% 30.05 in 10.0 mi Calm Calm - N/A   Clear
3:35 PM 69.8 °F - 37.4 °F 31% 30.05 in 6.0 mi West 6.9 mph - N/A   Clear
3:55 PM 69.8 °F - 37.4 °F 31% 30.04 in 10.0 mi NNW 6.9 mph - N/A   Clear
4:15 PM 69.8 °F - 37.4 °F 31% 30.03 in 10.0 mi NNW 4.6 mph - N/A   Clear
4:35 PM 69.8 °F - 39.2 °F 33% 30.02 in 10.0 mi WNW 10.4 mph - N/A   Clear
4:55 PM 69.8 °F - 37.4 °F 31% 30.01 in 10.0 mi North 3.5 mph - N/A   Clear
5:15 PM 69.8 °F - 39.2 °F 33% 30.01 in 10.0 mi Calm Calm - N/A   Clear
5:35 PM 71.6 °F - 39.2 °F 31% 30.00 in 10.0 mi NW 9.2 mph - N/A   Clear
5:55 PM 71.6 °F - 39.2 °F 31% 30.01 in 10.0 mi NNW 9.2 mph - N/A   Clear
6:15 PM 71.6 °F - 39.2 °F 31% 30.01 in 10.0 mi NW 11.5 mph - N/A   Clear
6:35 PM 69.8 °F - 39.2 °F 33% 30.01 in 10.0 mi NW 12.7 mph - N/A   Clear
6:55 PM 69.8 °F - 39.2 °F 33% 30.01 in 10.0 mi NNW 9.2 mph - N/A   Clear
7:15 PM 69.8 °F - 41.0 °F 35% 30.01 in 10.0 mi NW 8.1 mph - N/A   Clear
7:35 PM 68.0 °F - 42.8 °F 40% 30.01 in 10.0 mi NW 6.9 mph - N/A   Clear
7:55 PM 66.2 °F - 42.8 °F 43% 30.00 in 10.0 mi NNW 6.9 mph - N/A   Clear
8:15 PM 66.2 °F - 44.6 °F 46% 30.01 in 10.0 mi NNW 8.1 mph - N/A   Clear
8:35 PM 64.4 °F - 44.6 °F 49% 30.01 in 10.0 mi NNW 5.8 mph - N/A   Clear
8:55 PM 64.4 °F - 44.6 °F 49% 30.02 in 10.0 mi NNW 6.9 mph - N/A   Clear
9:15 PM 59.0 °F - 42.8 °F 55% 30.03 in 10.0 mi SW 3.5 mph - N/A   Clear
9:35 PM 60.8 °F - 46.4 °F 59% 30.04 in 10.0 mi Calm Calm - N/A   Clear
9:55 PM 57.2 °F - 44.6 °F 63% 30.04 in 10.0 mi WSW 3.5 mph - N/A   Clear
10:15 PM 59.0 °F - 46.4 °F 63% 30.04 in 10.0 mi Calm Calm - N/A   Clear
10:35 PM 57.2 °F - 44.6 °F 63% 30.04 in 10.0 mi Calm Calm - N/A   Clear
10:55 PM 59.0 °F - 44.6 °F 59% 30.05 in 10.0 mi Calm Calm - N/A   Clear
11:15 PM 55.4 °F - 42.8 °F 63% 30.05 in 10.0 mi West 6.9 mph - N/A   Clear
11:35 PM 55.4 °F - 44.6 °F 67% 30.05 in 10.0 mi NW 6.9 mph - N/A   Clear
11:55 PM 55.4 °F - 42.8 °F 63% 30.05 in 10.0 mi NW 6.9 mph - N/A   Clear